Time,TemperatureF,DewpointF,PressureIn,WindDirection,WindDirectionDegrees,WindSpeedMPH,WindSpeedGustMPH,Humidity,HourlyPrecipIn,Conditions,Clouds,dailyrainin,SoftwareType,DateUTC
2013-02-17 00:00:00,36.3,32.5,30.30,WSW,251,0.0,0.0,86,0.00,,,0.00,meteohub,2013-02-17 06:00:00,
2013-02-17 00:05:00,36.1,32.4,30.31,WSW,251,0.0,0.0,86,0.00,,,0.00,meteohub,2013-02-17 06:05:00,
2013-02-17 00:10:00,36.0,32.2,30.31,WSW,251,0.0,0.0,86,0.00,,,0.00,meteohub,2013-02-17 06:10:00,
2013-02-17 00:15:00,35.8,32.0,30.31,WSW,251,0.0,0.0,86,0.00,,,0.00,meteohub,2013-02-17 06:15:00,
2013-02-17 00:20:00,35.8,32.0,30.31,WSW,251,0.0,0.0,86,0.00,,,0.00,meteohub,2013-02-17 06:20:00,
2013-02-17 00:25:00,35.4,32.0,30.31,WSW,251,0.0,0.0,87,0.00,,,0.00,meteohub,2013-02-17 06:25:00,
2013-02-17 00:30:00,35.2,32.0,30.30,WSW,251,0.0,0.0,88,0.00,,,0.00,meteohub,2013-02-17 06:30:00,
2013-02-17 00:35:00,35.1,31.6,30.31,WSW,251,0.0,0.0,87,0.00,,,0.00,meteohub,2013-02-17 06:35:00,
2013-02-17 00:40:00,35.1,31.8,30.31,WSW,251,0.0,0.0,88,0.00,,,0.00,meteohub,2013-02-17 06:40:00,
2013-02-17 00:45:00,35.1,32.2,30.31,WSW,251,0.0,0.0,89,0.00,,,0.00,meteohub,2013-02-17 06:45:00,
2013-02-17 00:50:00,35.1,32.2,30.31,WSW,251,0.0,0.0,89,0.00,,,0.00,meteohub,2013-02-17 06:50:00,
2013-02-17 00:55:00,35.1,32.2,30.32,WSW,251,0.0,0.0,89,0.00,,,0.00,meteohub,2013-02-17 06:55:00,
2013-02-17 01:00:00,35.1,32.2,30.32,WSW,251,0.0,2.0,89,0.00,,,0.00,meteohub,2013-02-17 07:00:00,
2013-02-17 01:05:00,34.9,32.0,30.31,WSW,251,1.0,2.0,89,0.00,,,0.00,meteohub,2013-02-17 07:05:00,
2013-02-17 01:11:00,34.9,32.0,30.31,WSW,251,0.0,2.0,89,0.00,,,0.00,meteohub,2013-02-17 07:11:00,
2013-02-17 01:16:00,34.9,32.0,30.31,WSW,251,0.0,2.0,89,0.00,,,0.00,meteohub,2013-02-17 07:16:00,
2013-02-17 01:21:00,34.9,32.0,30.31,WSW,251,0.0,2.0,89,0.00,,,0.00,meteohub,2013-02-17 07:21:00,
2013-02-17 01:26:00,34.7,31.8,30.31,WSW,251,0.0,1.0,89,0.00,,,0.00,meteohub,2013-02-17 07:26:00,
2013-02-17 01:31:00,34.5,31.8,30.31,WSW,251,0.0,0.0,90,0.00,,,0.00,meteohub,2013-02-17 07:31:00,
2013-02-17 01:36:00,34.5,31.8,30.31,WSW,251,0.0,0.0,90,0.00,,,0.00,meteohub,2013-02-17 07:36:00,
2013-02-17 01:41:00,34.5,31.6,30.31,WSW,251,0.0,0.0,89,0.00,,,0.00,meteohub,2013-02-17 07:41:00,
2013-02-17 01:46:00,34.3,31.6,30.31,WSW,251,0.0,0.0,90,0.00,,,0.00,meteohub,2013-02-17 07:46:00,
2013-02-17 01:51:00,34.3,31.6,30.31,WSW,251,0.0,0.0,90,0.00,,,0.00,meteohub,2013-02-17 07:51:00,
2013-02-17 01:56:00,34.2,31.8,30.31,WSW,251,0.0,0.0,91,0.00,,,0.00,meteohub,2013-02-17 07:56:00,
2013-02-17 02:01:00,34.3,32.0,30.31,WSW,251,0.0,0.0,91,0.00,,,0.00,meteohub,2013-02-17 08:01:00,
2013-02-17 02:06:00,34.2,31.8,30.31,WSW,251,0.0,0.0,91,0.00,,,0.00,meteohub,2013-02-17 08:06:00,
2013-02-17 02:11:00,34.3,31.6,30.31,WSW,251,0.0,0.0,90,0.00,,,0.00,meteohub,2013-02-17 08:11:00,
2013-02-17 02:16:00,34.7,31.8,30.31,WSW,251,0.0,0.0,89,0.00,,,0.00,meteohub,2013-02-17 08:16:00,
2013-02-17 02:21:00,34.9,31.5,30.31,WSW,251,1.0,0.0,87,0.00,,,0.00,meteohub,2013-02-17 08:21:00,
2013-02-17 02:26:00,35.4,31.3,30.31,WSW,251,1.0,2.0,85,0.00,,,0.00,meteohub,2013-02-17 08:26:00,
2013-02-17 02:31:00,36.0,30.9,30.31,WSW,251,1.0,3.0,82,0.00,,,0.00,meteohub,2013-02-17 08:31:00,
2013-02-17 02:36:00,36.3,31.1,30.31,WSW,251,1.0,3.0,81,0.00,,,0.00,meteohub,2013-02-17 08:36:00,
2013-02-17 02:41:00,36.7,30.6,30.31,WSW,251,1.0,3.0,78,0.00,,,0.00,meteohub,2013-02-17 08:41:00,
2013-02-17 02:46:00,37.0,30.2,30.31,WSW,251,1.0,3.0,76,0.00,,,0.00,meteohub,2013-02-17 08:46:00,
2013-02-17 02:51:00,37.2,29.7,30.31,WSW,251,0.0,3.0,74,0.00,,,0.00,meteohub,2013-02-17 08:51:00,
2013-02-17 02:56:00,37.6,29.1,30.31,WSW,252,2.0,4.0,71,0.00,,,0.00,meteohub,2013-02-17 08:56:00,
2013-02-17 03:01:00,37.9,28.8,30.31,ENE,67,4.0,5.0,69,0.00,,,0.00,meteohub,2013-02-17 09:01:00,
2013-02-17 03:06:00,38.3,28.9,30.30,ENE,69,1.0,5.0,69,0.00,,,0.00,meteohub,2013-02-17 09:06:00,
2013-02-17 03:11:00,38.3,28.9,30.30,ENE,67,2.0,5.0,69,0.00,,,0.00,meteohub,2013-02-17 09:11:00,
2013-02-17 03:16:00,38.3,28.8,30.30,ENE,71,2.0,5.0,68,0.00,,,0.00,meteohub,2013-02-17 09:16:00,
2013-02-17 03:21:00,38.3,28.8,30.30,ENE,72,3.0,5.0,68,0.00,,,0.00,meteohub,2013-02-17 09:21:00,
2013-02-17 03:26:00,38.1,28.6,30.30,ENE,71,2.0,5.0,68,0.00,,,0.00,meteohub,2013-02-17 09:26:00,
2013-02-17 03:31:00,38.1,28.9,30.29,ESE,111,2.0,7.0,69,0.00,,,0.00,meteohub,2013-02-17 09:31:00,
2013-02-17 03:36:00,38.1,28.9,30.30,ENE,71,5.0,7.0,69,0.00,,,0.00,meteohub,2013-02-17 09:36:00,
2013-02-17 03:41:00,38.1,28.9,30.30,East,84,2.0,7.0,69,0.00,,,0.00,meteohub,2013-02-17 09:41:00,
2013-02-17 03:46:00,38.1,28.6,30.30,ENE,71,2.0,7.0,68,0.00,,,0.00,meteohub,2013-02-17 09:46:00,
2013-02-17 03:51:00,38.1,28.9,30.30,ESE,104,2.0,6.0,69,0.00,,,0.00,meteohub,2013-02-17 09:51:00,
2013-02-17 03:56:00,37.9,28.8,30.30,ENE,69,4.0,7.0,69,0.00,,,0.00,meteohub,2013-02-17 09:56:00,
2013-02-17 04:01:00,37.8,28.9,30.30,East,92,1.0,7.0,70,0.00,,,0.00,meteohub,2013-02-17 10:01:00,
2013-02-17 04:06:00,37.8,28.9,30.30,ENE,65,4.0,7.0,70,0.00,,,0.00,meteohub,2013-02-17 10:06:00,
2013-02-17 04:11:00,37.8,29.1,30.30,East,90,1.0,7.0,71,0.00,,,0.00,meteohub,2013-02-17 10:11:00,
2013-02-17 04:16:00,37.6,29.1,30.31,ENE,78,2.0,7.0,71,0.00,,,0.00,meteohub,2013-02-17 10:16:00,
2013-02-17 04:21:00,37.6,29.3,30.30,East,80,0.0,7.0,72,0.00,,,0.00,meteohub,2013-02-17 10:21:00,
2013-02-17 04:26:00,37.2,29.1,30.31,East,80,2.0,5.0,72,0.00,,,0.00,meteohub,2013-02-17 10:26:00,
2013-02-17 04:31:00,37.2,29.3,30.31,East,80,1.0,5.0,73,0.00,,,0.00,meteohub,2013-02-17 10:31:00,
2013-02-17 04:36:00,37.0,29.1,30.31,East,80,1.0,3.0,73,0.00,,,0.00,meteohub,2013-02-17 10:36:00,
2013-02-17 04:41:00,36.9,28.9,30.31,East,80,0.0,2.0,73,0.00,,,0.00,meteohub,2013-02-17 10:41:00,
2013-02-17 04:46:00,36.7,29.1,30.31,East,80,0.0,2.0,74,0.00,,,0.00,meteohub,2013-02-17 10:46:00,
2013-02-17 04:51:00,36.5,29.3,30.31,East,80,0.0,2.0,75,0.00,,,0.00,meteohub,2013-02-17 10:51:00,
2013-02-17 04:56:00,36.3,29.1,30.31,East,80,0.0,1.0,75,0.00,,,0.00,meteohub,2013-02-17 10:56:00,
2013-02-17 05:01:00,36.1,29.3,30.31,East,80,0.0,1.0,76,0.00,,,0.00,meteohub,2013-02-17 11:01:00,
2013-02-17 05:06:00,36.1,29.3,30.31,East,80,0.0,1.0,76,0.00,,,0.00,meteohub,2013-02-17 11:06:00,
2013-02-17 05:11:00,36.1,29.7,30.31,East,80,2.0,2.0,77,0.00,,,0.00,meteohub,2013-02-17 11:11:00,
2013-02-17 05:16:00,36.0,29.5,30.31,East,80,0.0,3.0,77,0.00,,,0.00,meteohub,2013-02-17 11:16:00,
2013-02-17 05:21:00,36.0,29.5,30.31,East,80,2.0,3.0,77,0.00,,,0.00,meteohub,2013-02-17 11:21:00,
2013-02-17 05:26:00,36.0,29.5,30.31,East,80,1.0,3.0,77,0.00,,,0.00,meteohub,2013-02-17 11:26:00,
2013-02-17 05:31:00,35.8,29.3,30.31,East,80,0.0,2.0,77,0.00,,,0.00,meteohub,2013-02-17 11:31:00,
2013-02-17 05:36:00,35.6,29.5,30.31,East,80,0.0,2.0,78,0.00,,,0.00,meteohub,2013-02-17 11:36:00,
2013-02-17 05:41:00,35.4,29.5,30.32,East,80,0.0,1.0,79,0.00,,,0.00,meteohub,2013-02-17 11:41:00,
2013-02-17 05:46:00,35.2,29.7,30.32,East,80,0.0,0.0,80,0.00,,,0.00,meteohub,2013-02-17 11:46:00,
2013-02-17 05:51:00,35.1,29.5,30.32,East,80,1.0,1.0,80,0.00,,,0.00,meteohub,2013-02-17 11:51:00,
2013-02-17 05:56:00,35.1,29.5,30.32,East,80,0.0,2.0,80,0.00,,,0.00,meteohub,2013-02-17 11:56:00,
2013-02-17 06:01:00,35.1,29.5,30.32,East,80,1.0,2.0,80,0.00,,,0.00,meteohub,2013-02-17 12:01:00,
2013-02-17 06:06:00,35.1,29.5,30.32,East,80,0.0,2.0,80,0.00,,,0.00,meteohub,2013-02-17 12:06:00,
2013-02-17 06:11:00,35.1,29.5,30.32,East,80,1.0,2.0,80,0.00,,,0.00,meteohub,2013-02-17 12:11:00,
2013-02-17 06:16:00,35.1,29.5,30.33,East,80,0.0,2.0,80,0.00,,,0.00,meteohub,2013-02-17 12:16:00,
2013-02-17 06:21:00,35.1,29.5,30.33,East,80,0.0,2.0,80,0.00,,,0.00,meteohub,2013-02-17 12:21:00,
2013-02-17 06:26:00,35.1,29.5,30.33,East,80,0.0,2.0,80,0.00,,,0.00,meteohub,2013-02-17 12:26:00,
2013-02-17 06:31:00,34.9,29.3,30.34,East,80,0.0,2.0,80,0.00,,,0.00,meteohub,2013-02-17 12:31:00,
2013-02-17 06:37:00,34.9,29.7,30.34,East,80,1.0,1.0,81,0.00,,,0.00,meteohub,2013-02-17 12:37:00,
2013-02-17 06:42:00,35.1,29.5,30.33,East,80,1.0,2.0,80,0.00,,,0.00,meteohub,2013-02-17 12:42:00,
2013-02-17 06:47:00,35.2,29.3,30.34,East,80,1.0,2.0,79,0.00,,,0.00,meteohub,2013-02-17 12:47:00,
2013-02-17 06:52:00,35.2,29.3,30.34,East,80,0.0,2.0,79,0.00,,,0.00,meteohub,2013-02-17 12:52:00,
2013-02-17 06:57:00,35.2,29.3,30.34,East,80,0.0,2.0,79,0.00,,,0.00,meteohub,2013-02-17 12:57:00,
2013-02-17 07:02:00,35.2,29.3,30.34,East,80,0.0,2.0,79,0.00,,,0.00,meteohub,2013-02-17 13:02:00,
2013-02-17 07:07:00,35.2,29.3,30.34,East,80,0.0,1.0,79,0.00,,,0.00,meteohub,2013-02-17 13:07:00,
2013-02-17 07:12:00,35.2,29.3,30.34,East,80,1.0,1.0,79,0.00,,,0.00,meteohub,2013-02-17 13:12:00,
2013-02-17 07:17:00,35.4,29.5,30.34,SE,128,0.0,1.0,79,0.00,,,0.00,meteohub,2013-02-17 13:17:00,
2013-02-17 07:22:00,36.0,30.0,30.35,ESE,102,0.0,3.0,79,0.00,,,0.00,meteohub,2013-02-17 13:22:00,
2013-02-17 07:27:00,36.5,30.0,30.35,East,97,0.0,3.0,77,0.00,,,0.00,meteohub,2013-02-17 13:27:00,
2013-02-17 07:32:00,37.2,30.7,30.35,East,97,2.0,3.0,77,0.00,,,0.00,meteohub,2013-02-17 13:32:00,
2013-02-17 07:37:00,37.9,30.7,30.35,ENE,66,2.0,5.0,75,0.00,,,0.00,meteohub,2013-02-17 13:37:00,
2013-02-17 07:41:00,38.3,30.7,30.35,East,84,1.0,5.0,74,0.00,,,0.00,meteohub,2013-02-17 13:41:00,
2013-02-17 07:47:00,38.7,30.7,30.35,ESE,121,4.0,4.0,73,0.00,,,0.00,meteohub,2013-02-17 13:47:00,
2013-02-17 07:52:00,39.0,31.1,30.36,ENE,65,4.0,5.0,73,0.00,,,0.00,meteohub,2013-02-17 13:52:00,
2013-02-17 07:57:00,39.4,31.5,30.36,ESE,115,2.0,5.0,73,0.00,,,0.00,meteohub,2013-02-17 13:57:00,
2013-02-17 08:02:00,39.9,31.6,30.36,ESE,103,0.0,5.0,72,0.00,,,0.00,meteohub,2013-02-17 14:02:00,
2013-02-17 08:07:00,40.5,32.5,30.36,ESE,115,0.0,7.0,73,0.00,,,0.00,meteohub,2013-02-17 14:07:00,
2013-02-17 08:12:00,41.0,33.1,30.35,SE,125,5.0,7.0,73,0.00,,,0.00,meteohub,2013-02-17 14:12:00,
2013-02-17 08:17:00,41.4,33.1,30.36,SE,128,4.0,7.0,72,0.00,,,0.00,meteohub,2013-02-17 14:17:00,
2013-02-17 08:22:00,42.1,34.0,30.36,SSE,163,3.0,8.0,73,0.00,,,0.00,meteohub,2013-02-17 14:22:00,
2013-02-17 08:27:00,42.4,34.0,30.36,East,98,3.0,8.0,72,0.00,,,0.00,meteohub,2013-02-17 14:27:00,
2013-02-17 08:32:00,43.0,34.5,30.36,SE,137,4.0,8.0,72,0.00,,,0.00,meteohub,2013-02-17 14:32:00,
2013-02-17 08:37:00,43.5,35.1,30.36,SE,141,5.0,8.0,72,0.00,,,0.00,meteohub,2013-02-17 14:37:00,
2013-02-17 08:42:00,44.1,36.0,30.36,SSE,150,2.0,8.0,73,0.00,,,0.00,meteohub,2013-02-17 14:42:00,
2013-02-17 08:46:00,44.8,35.6,30.36,ESE,117,3.0,7.0,70,0.00,,,0.00,meteohub,2013-02-17 14:46:00,
2013-02-17 08:52:00,45.0,35.4,30.36,ESE,117,5.0,9.0,69,0.00,,,0.00,meteohub,2013-02-17 14:52:00,
2013-02-17 08:57:00,45.1,36.0,30.36,SE,124,7.0,9.0,70,0.00,,,0.00,meteohub,2013-02-17 14:57:00,
2013-02-17 09:02:00,45.7,35.8,30.36,East,100,5.0,9.0,68,0.00,,,0.00,meteohub,2013-02-17 15:02:00,
2013-02-17 09:07:00,46.2,36.3,30.36,ESE,118,4.0,10.0,68,0.00,,,0.00,meteohub,2013-02-17 15:07:00,
2013-02-17 09:12:00,46.9,36.5,30.36,ESE,115,5.0,10.0,67,0.00,,,0.00,meteohub,2013-02-17 15:12:00,
2013-02-17 09:17:00,47.1,36.0,30.36,SSE,150,5.0,11.0,65,0.00,,,0.00,meteohub,2013-02-17 15:17:00,
2013-02-17 09:22:00,47.8,35.8,30.36,East,96,7.0,11.0,63,0.00,,,0.00,meteohub,2013-02-17 15:22:00,
2013-02-17 09:27:00,47.8,35.8,30.36,SE,124,2.0,12.0,63,0.00,,,0.00,meteohub,2013-02-17 15:27:00,
2013-02-17 09:32:00,48.4,36.3,30.35,ENE,57,5.0,12.0,63,0.00,,,0.00,meteohub,2013-02-17 15:32:00,
2013-02-17 09:37:00,48.7,36.3,30.35,ESE,115,4.0,12.0,62,0.00,,,0.00,meteohub,2013-02-17 15:37:00,
2013-02-17 09:42:00,49.3,36.3,30.35,ESE,106,1.0,10.0,61,0.00,,,0.00,meteohub,2013-02-17 15:42:00,
2013-02-17 09:47:00,49.6,36.7,30.35,East,98,7.0,9.0,61,0.00,,,0.00,meteohub,2013-02-17 15:47:00,
2013-02-17 09:52:00,50.5,36.3,30.35,ESE,105,3.0,9.0,58,0.00,,,0.00,meteohub,2013-02-17 15:52:00,
2013-02-17 09:57:00,51.1,36.0,30.35,ESE,115,4.0,9.0,56,0.00,,,0.00,meteohub,2013-02-17 15:57:00,
2013-02-17 10:02:00,51.3,35.2,30.35,ESE,111,4.0,8.0,54,0.00,,,0.00,meteohub,2013-02-17 16:02:00,
2013-02-17 10:07:00,51.8,33.8,30.35,SE,126,5.0,8.0,50,0.00,,,0.00,meteohub,2013-02-17 16:07:00,
2013-02-17 10:12:00,52.3,33.8,30.35,SSE,167,4.0,11.0,49,0.00,,,0.00,meteohub,2013-02-17 16:12:00,
2013-02-17 10:17:00,52.9,34.7,30.35,SSE,161,2.0,11.0,50,0.00,,,0.00,meteohub,2013-02-17 16:17:00,
2013-02-17 10:22:00,53.8,33.4,30.35,SE,132,5.0,10.0,46,0.00,,,0.00,meteohub,2013-02-17 16:22:00,
2013-02-17 10:27:00,53.6,33.8,30.35,East,97,3.0,9.0,47,0.00,,,0.00,meteohub,2013-02-17 16:27:00,
2013-02-17 10:32:00,54.0,34.2,30.35,SE,125,2.0,10.0,47,0.00,,,0.00,meteohub,2013-02-17 16:32:00,
2013-02-17 10:37:00,54.3,34.5,30.35,ESE,121,8.0,10.0,47,0.00,,,0.00,meteohub,2013-02-17 16:37:00,
2013-02-17 10:42:00,54.1,34.3,30.35,NE,53,5.0,10.0,47,0.00,,,0.00,meteohub,2013-02-17 16:42:00,
2013-02-17 10:47:00,54.5,33.6,30.34,ESE,116,5.0,10.0,45,0.00,,,0.00,meteohub,2013-02-17 16:47:00,
2013-02-17 10:52:00,55.2,34.9,30.34,South,188,2.0,10.0,46,0.00,,,0.00,meteohub,2013-02-17 16:52:00,
2013-02-17 10:57:00,55.8,34.7,30.34,East,96,3.0,10.0,45,0.00,,,0.00,meteohub,2013-02-17 16:57:00,
2013-02-17 11:02:00,56.1,35.6,30.34,SE,132,2.0,9.0,46,0.00,,,0.00,meteohub,2013-02-17 17:02:00,
2013-02-17 11:07:00,56.5,35.4,30.34,ESE,107,4.0,9.0,45,0.00,,,0.00,meteohub,2013-02-17 17:07:00,
2013-02-17 11:12:00,56.7,35.6,30.34,SE,125,6.0,8.0,45,0.00,,,0.00,meteohub,2013-02-17 17:12:00,
2013-02-17 11:17:00,56.8,36.3,30.33,SW,229,4.0,10.0,46,0.00,,,0.00,meteohub,2013-02-17 17:17:00,
2013-02-17 11:22:00,57.2,36.0,30.33,ESE,121,5.0,10.0,45,0.00,,,0.00,meteohub,2013-02-17 17:22:00,
2013-02-17 11:27:00,57.0,36.5,30.33,SSW,195,2.0,10.0,46,0.00,,,0.00,meteohub,2013-02-17 17:27:00,
2013-02-17 11:32:00,57.2,36.0,30.33,South,174,5.0,10.0,45,0.00,,,0.00,meteohub,2013-02-17 17:32:00,
2013-02-17 11:37:00,57.2,36.7,30.32,ESE,112,2.0,10.0,46,0.00,,,0.00,meteohub,2013-02-17 17:37:00,
2013-02-17 11:42:00,57.4,37.4,30.32,SE,129,3.0,8.0,47,0.00,,,0.00,meteohub,2013-02-17 17:42:00,
2013-02-17 11:47:00,57.9,37.2,30.32,South,170,2.0,8.0,46,0.00,,,0.00,meteohub,2013-02-17 17:47:00,
2013-02-17 11:52:00,58.3,38.1,30.31,East,91,6.0,9.0,47,0.00,,,0.00,meteohub,2013-02-17 17:52:00,
2013-02-17 11:57:00,57.9,37.8,30.31,SE,130,4.0,9.0,47,0.00,,,0.00,meteohub,2013-02-17 17:57:00,
2013-02-17 12:02:00,58.5,38.3,30.30,SSE,153,4.0,10.0,47,0.00,,,0.00,meteohub,2013-02-17 18:02:00,
2013-02-17 12:07:00,58.6,38.5,30.30,ESE,123,5.0,10.0,47,0.00,,,0.00,meteohub,2013-02-17 18:07:00,
2013-02-17 12:12:00,58.8,38.7,30.30,SE,140,7.0,10.0,47,0.00,,,0.00,meteohub,2013-02-17 18:12:00,
2013-02-17 12:17:00,59.2,38.5,30.29,SE,132,5.0,11.0,46,0.00,,,0.00,meteohub,2013-02-17 18:17:00,
2013-02-17 12:22:00,59.5,39.4,30.29,SE,132,3.0,11.0,47,0.00,,,0.00,meteohub,2013-02-17 18:22:00,
2013-02-17 12:27:00,59.9,38.5,30.29,SSW,193,6.0,11.0,45,0.00,,,0.00,meteohub,2013-02-17 18:27:00,
2013-02-17 12:32:00,59.7,39.9,30.28,SSE,165,2.0,11.0,48,0.00,,,0.00,meteohub,2013-02-17 18:32:00,
2013-02-17 12:37:00,60.3,38.8,30.28,South,175,1.0,9.0,45,0.00,,,0.00,meteohub,2013-02-17 18:37:00,
2013-02-17 12:42:00,60.6,39.2,30.27,ESE,117,8.0,9.0,45,0.00,,,0.00,meteohub,2013-02-17 18:42:00,
2013-02-17 12:47:00,61.0,38.8,30.27,SSW,203,4.0,11.0,44,0.00,,,0.00,meteohub,2013-02-17 18:47:00,
2013-02-17 12:52:00,60.8,38.7,30.27,SW,230,3.0,11.0,44,0.00,,,0.00,meteohub,2013-02-17 18:52:00,
2013-02-17 12:57:00,61.2,39.0,30.27,South,171,6.0,11.0,44,0.00,,,0.00,meteohub,2013-02-17 18:57:00,
2013-02-17 13:02:00,61.3,39.2,30.26,SSW,194,3.0,11.0,44,0.00,,,0.00,meteohub,2013-02-17 19:02:00,
2013-02-17 13:07:00,61.5,38.3,30.26,South,188,4.0,11.0,42,0.00,,,0.00,meteohub,2013-02-17 19:07:00,
2013-02-17 13:12:00,61.3,39.7,30.26,SE,128,2.0,10.0,45,0.00,,,0.00,meteohub,2013-02-17 19:12:00,
2013-02-17 13:17:00,61.7,39.0,30.25,ESE,117,7.0,10.0,43,0.00,,,0.00,meteohub,2013-02-17 19:17:00,
2013-02-17 13:22:00,61.5,38.8,30.25,South,190,0.0,15.0,43,0.00,,,0.00,meteohub,2013-02-17 19:22:00,
2013-02-17 13:27:00,61.9,39.2,30.25,SW,228,6.0,15.0,43,0.00,,,0.00,meteohub,2013-02-17 19:27:00,
2013-02-17 13:32:00,61.7,39.0,30.25,East,98,8.0,12.0,43,0.00,,,0.00,meteohub,2013-02-17 19:32:00,
2013-02-17 13:37:00,62.1,38.7,30.25,SW,216,1.0,10.0,42,0.00,,,0.00,meteohub,2013-02-17 19:37:00,
2013-02-17 13:42:00,62.2,40.1,30.24,South,170,2.0,10.0,44,0.00,,,0.00,meteohub,2013-02-17 19:42:00,
2013-02-17 13:47:00,63.0,40.6,30.24,SSW,208,7.0,10.0,44,0.00,,,0.00,meteohub,2013-02-17 19:47:00,
2013-02-17 13:52:00,62.1,39.9,30.24,ESE,120,3.0,10.0,44,0.00,,,0.00,meteohub,2013-02-17 19:52:00,
2013-02-17 13:57:00,62.2,38.8,30.23,SE,146,2.0,10.0,42,0.00,,,0.00,meteohub,2013-02-17 19:57:00,
2013-02-17 14:02:00,62.1,38.7,30.23,South,184,1.0,10.0,42,0.00,,,0.00,meteohub,2013-02-17 20:02:00,
2013-02-17 14:07:00,62.6,39.7,30.23,SSW,209,3.0,9.0,43,0.00,,,0.00,meteohub,2013-02-17 20:07:00,
2013-02-17 14:12:00,63.0,39.6,30.23,ESE,119,7.0,9.0,42,0.00,,,0.00,meteohub,2013-02-17 20:12:00,
2013-02-17 14:17:00,62.8,40.5,30.23,SSE,159,2.0,12.0,44,0.00,,,0.00,meteohub,2013-02-17 20:17:00,
2013-02-17 14:22:00,63.0,39.6,30.22,SE,126,6.0,12.0,42,0.00,,,0.00,meteohub,2013-02-17 20:22:00,
2013-02-17 14:27:00,63.1,41.5,30.22,ESE,111,4.0,12.0,45,0.00,,,0.00,meteohub,2013-02-17 20:27:00,
2013-02-17 14:32:00,63.7,39.6,30.22,SE,130,5.0,11.0,41,0.00,,,0.00,meteohub,2013-02-17 20:32:00,
2013-02-17 14:37:00,63.9,41.0,30.22,South,178,5.0,11.0,43,0.00,,,0.00,meteohub,2013-02-17 20:37:00,
2013-02-17 14:42:00,63.9,40.3,30.22,South,174,5.0,10.0,42,0.00,,,0.00,meteohub,2013-02-17 20:42:00,
2013-02-17 14:47:00,63.9,41.0,30.22,SE,146,3.0,10.0,43,0.00,,,0.00,meteohub,2013-02-17 20:47:00,
2013-02-17 14:52:00,63.7,40.1,30.21,SSE,155,8.0,10.0,42,0.00,,,0.00,meteohub,2013-02-17 20:52:00,
2013-02-17 14:57:00,64.2,40.6,30.21,SW,223,3.0,14.0,42,0.00,,,0.00,meteohub,2013-02-17 20:57:00,
2013-02-17 15:02:00,64.4,40.1,30.21,SW,236,3.0,14.0,41,0.00,,,0.00,meteohub,2013-02-17 21:02:00,
2013-02-17 15:07:00,64.6,39.7,30.21,SW,217,5.0,14.0,40,0.00,,,0.00,meteohub,2013-02-17 21:07:00,
2013-02-17 15:12:00,64.0,39.9,30.21,South,174,2.0,11.0,41,0.00,,,0.00,meteohub,2013-02-17 21:12:00,
2013-02-17 15:17:00,64.0,40.5,30.21,SW,226,4.0,11.0,42,0.00,,,0.00,meteohub,2013-02-17 21:17:00,
2013-02-17 15:22:00,64.0,41.2,30.21,South,187,3.0,11.0,43,0.00,,,0.00,meteohub,2013-02-17 21:22:00,
2013-02-17 15:27:00,64.0,41.2,30.21,SW,232,9.0,10.0,43,0.00,,,0.00,meteohub,2013-02-17 21:27:00,
2013-02-17 15:32:00,64.0,40.5,30.21,SSW,198,2.0,10.0,42,0.00,,,0.00,meteohub,2013-02-17 21:32:00,
2013-02-17 15:37:00,64.0,40.5,30.20,South,171,3.0,9.0,42,0.00,,,0.00,meteohub,2013-02-17 21:37:00,
2013-02-17 15:42:00,64.0,40.5,30.20,SSE,151,4.0,10.0,42,0.00,,,0.00,meteohub,2013-02-17 21:42:00,
2013-02-17 15:47:00,64.2,40.6,30.20,ESE,118,4.0,10.0,42,0.00,,,0.00,meteohub,2013-02-17 21:47:00,
2013-02-17 15:52:00,64.4,42.6,30.20,SSW,196,3.0,10.0,45,0.00,,,0.00,meteohub,2013-02-17 21:52:00,
2013-02-17 15:57:00,64.4,42.1,30.20,SSE,150,3.0,9.0,44,0.00,,,0.00,meteohub,2013-02-17 21:57:00,
2013-02-17 16:02:00,64.4,41.4,30.20,ESE,115,7.0,9.0,43,0.00,,,0.00,meteohub,2013-02-17 22:02:00,
2013-02-17 16:07:00,63.9,41.5,30.20,South,173,4.0,9.0,44,0.00,,,0.00,meteohub,2013-02-17 22:07:00,
2013-02-17 16:12:00,63.7,41.4,30.20,SSE,158,1.0,11.0,44,0.00,,,0.00,meteohub,2013-02-17 22:12:00,
2013-02-17 16:17:00,64.0,41.7,30.20,South,181,2.0,11.0,44,0.00,,,0.00,meteohub,2013-02-17 22:17:00,
2013-02-17 16:22:00,64.2,41.9,30.20,South,182,4.0,11.0,44,0.00,,,0.00,meteohub,2013-02-17 22:22:00,
2013-02-17 16:27:00,64.2,41.9,30.20,SW,219,3.0,9.0,44,0.00,,,0.00,meteohub,2013-02-17 22:27:00,
2013-02-17 16:32:00,64.0,41.7,30.20,SSE,162,1.0,9.0,44,0.00,,,0.00,meteohub,2013-02-17 22:32:00,
2013-02-17 16:37:00,63.9,41.5,30.20,SE,133,5.0,10.0,44,0.00,,,0.00,meteohub,2013-02-17 22:37:00,
2013-02-17 16:42:00,63.3,41.5,30.20,South,171,3.0,10.0,45,0.00,,,0.00,meteohub,2013-02-17 22:42:00,
2013-02-17 16:47:00,63.5,42.3,30.20,SSE,167,9.0,10.0,46,0.00,,,0.00,meteohub,2013-02-17 22:47:00,
2013-02-17 16:52:00,62.8,41.2,30.20,WSW,253,4.0,12.0,45,0.00,,,0.00,meteohub,2013-02-17 22:52:00,
2013-02-17 16:57:00,62.2,41.2,30.20,SW,233,10.0,13.0,46,0.00,,,0.00,meteohub,2013-02-17 22:57:00,
2013-02-17 17:02:00,62.1,41.0,30.20,SSW,202,7.0,13.0,46,0.00,,,0.00,meteohub,2013-02-17 23:02:00,
2013-02-17 17:07:00,61.9,41.4,30.20,WSW,242,7.0,13.0,47,0.00,,,0.00,meteohub,2013-02-17 23:07:00,
2013-02-17 17:12:00,61.9,41.9,30.20,South,189,5.0,13.0,48,0.00,,,0.00,meteohub,2013-02-17 23:12:00,
2013-02-17 17:17:00,61.5,42.3,30.20,SSW,209,5.0,13.0,49,0.00,,,0.00,meteohub,2013-02-17 23:17:00,
2013-02-17 17:22:00,61.2,43.0,30.20,SW,223,7.0,13.0,51,0.00,,,0.00,meteohub,2013-02-17 23:22:00,
2013-02-17 17:27:00,61.0,42.8,30.20,South,190,3.0,13.0,51,0.00,,,0.00,meteohub,2013-02-17 23:27:00,
2013-02-17 17:32:00,60.6,42.4,30.20,WSW,243,7.0,13.0,51,0.00,,,0.00,meteohub,2013-02-17 23:32:00,
2013-02-17 17:37:00,60.3,42.1,30.20,SSW,211,3.0,11.0,51,0.00,,,0.00,meteohub,2013-02-17 23:37:00,
2013-02-17 17:42:00,60.1,42.4,30.20,SSW,202,4.0,11.0,52,0.00,,,0.00,meteohub,2013-02-17 23:42:00,
2013-02-17 17:47:00,59.7,42.6,30.20,SW,219,5.0,11.0,53,0.00,,,0.00,meteohub,2013-02-17 23:47:00,
2013-02-17 17:52:00,59.4,42.3,30.21,SSW,208,5.0,9.0,53,0.00,,,0.00,meteohub,2013-02-17 23:52:00,
2013-02-17 17:57:00,59.2,42.1,30.21,SW,230,4.0,9.0,53,0.00,,,0.00,meteohub,2013-02-17 23:57:00,
2013-02-17 18:02:00,58.6,42.1,30.21,SSW,199,2.0,11.0,54,0.00,,,0.00,meteohub,2013-02-18 00:02:00,
2013-02-17 18:07:00,58.5,42.4,30.21,South,184,1.0,11.0,55,0.00,,,0.00,meteohub,2013-02-18 00:07:00,
2013-02-17 18:12:00,58.3,42.3,30.21,SW,218,5.0,8.0,55,0.00,,,0.00,meteohub,2013-02-18 00:12:00,
2013-02-17 18:17:00,57.7,42.1,30.21,SSW,213,4.0,9.0,56,0.00,,,0.00,meteohub,2013-02-18 00:17:00,
2013-02-17 18:22:00,57.6,42.4,30.21,South,178,1.0,9.0,57,0.00,,,0.00,meteohub,2013-02-18 00:22:00,
2013-02-17 18:27:00,57.4,42.8,30.21,SSW,200,1.0,9.0,58,0.00,,,0.00,meteohub,2013-02-18 00:27:00,
2013-02-17 18:32:00,57.2,42.6,30.21,SW,221,4.0,6.0,58,0.00,,,0.00,meteohub,2013-02-18 00:32:00,
2013-02-17 18:37:00,57.0,42.8,30.21,South,185,1.0,6.0,59,0.00,,,0.00,meteohub,2013-02-18 00:37:00,
2013-02-17 18:42:00,56.8,42.6,30.21,SSW,192,7.0,8.0,59,0.00,,,0.00,meteohub,2013-02-18 00:42:00,
2013-02-17 18:47:00,56.7,42.4,30.21,SSW,203,3.0,8.0,59,0.00,,,0.00,meteohub,2013-02-18 00:47:00,
2013-02-17 18:52:00,56.7,43.0,30.21,SSW,213,6.0,8.0,60,0.00,,,0.00,meteohub,2013-02-18 00:52:00,
2013-02-17 18:57:00,56.5,42.8,30.22,SSW,205,6.0,7.0,60,0.00,,,0.00,meteohub,2013-02-18 00:57:00,
2013-02-17 19:02:00,56.1,42.4,30.22,SSW,193,1.0,7.0,60,0.00,,,0.00,meteohub,2013-02-18 01:02:00,
2013-02-17 19:07:00,55.9,42.6,30.22,SSW,194,1.0,7.0,61,0.00,,,0.00,meteohub,2013-02-18 01:07:00,
2013-02-17 19:12:00,55.6,42.8,30.22,South,188,0.0,6.0,62,0.00,,,0.00,meteohub,2013-02-18 01:12:00,
2013-02-17 19:17:00,55.2,42.4,30.22,SSW,196,2.0,6.0,62,0.00,,,0.00,meteohub,2013-02-18 01:17:00,
2013-02-17 19:22:00,55.2,42.4,30.22,South,171,1.0,4.0,62,0.00,,,0.00,meteohub,2013-02-18 01:22:00,
2013-02-17 19:27:00,55.0,42.3,30.22,South,171,0.0,5.0,62,0.00,,,0.00,meteohub,2013-02-18 01:27:00,
2013-02-17 19:32:00,54.7,42.3,30.22,SE,135,0.0,5.0,63,0.00,,,0.00,meteohub,2013-02-18 01:32:00,
2013-02-17 19:37:00,54.3,42.1,30.22,South,188,1.0,4.0,63,0.00,,,0.00,meteohub,2013-02-18 01:37:00,
2013-02-17 19:42:00,54.3,42.4,30.22,SE,146,2.0,4.0,64,0.00,,,0.00,meteohub,2013-02-18 01:42:00,
2013-02-17 19:47:00,54.1,42.3,30.22,SSE,164,0.0,5.0,64,0.00,,,0.00,meteohub,2013-02-18 01:47:00,
2013-02-17 19:52:00,54.0,42.1,30.22,SSE,164,1.0,5.0,64,0.00,,,0.00,meteohub,2013-02-18 01:52:00,
2013-02-17 19:57:00,54.0,42.1,30.22,SE,138,1.0,4.0,64,0.00,,,0.00,meteohub,2013-02-18 01:57:00,
2013-02-17 20:02:00,53.8,42.3,30.22,South,173,2.0,5.0,65,0.00,,,0.00,meteohub,2013-02-18 02:02:00,
2013-02-17 20:07:00,53.6,41.7,30.22,SSE,150,4.0,5.0,64,0.00,,,0.00,meteohub,2013-02-18 02:07:00,
2013-02-17 20:12:00,53.6,41.7,30.22,SSW,192,2.0,8.0,64,0.00,,,0.00,meteohub,2013-02-18 02:12:00,
2013-02-17 20:17:00,53.4,41.5,30.22,South,173,4.0,8.0,64,0.00,,,0.00,meteohub,2013-02-18 02:17:00,
2013-02-17 20:22:00,53.6,41.4,30.22,SE,124,4.0,8.0,63,0.00,,,0.00,meteohub,2013-02-18 02:22:00,
2013-02-17 20:27:00,53.6,41.4,30.22,SSE,166,1.0,7.0,63,0.00,,,0.00,meteohub,2013-02-18 02:27:00,
2013-02-17 20:32:00,53.2,41.0,30.22,SE,136,4.0,7.0,63,0.00,,,0.00,meteohub,2013-02-18 02:32:00,
2013-02-17 20:37:00,53.2,41.0,30.23,SSE,155,2.0,5.0,63,0.00,,,0.00,meteohub,2013-02-18 02:37:00,
2013-02-17 20:42:00,53.2,41.4,30.23,South,174,1.0,4.0,64,0.00,,,0.00,meteohub,2013-02-18 02:42:00,
2013-02-17 20:47:00,52.9,41.0,30.23,SSE,161,1.0,4.0,64,0.00,,,0.00,meteohub,2013-02-18 02:47:00,
2013-02-17 20:52:00,52.7,41.2,30.23,SSE,161,0.0,5.0,65,0.00,,,0.00,meteohub,2013-02-18 02:52:00,
2013-02-17 20:57:00,52.3,41.0,30.23,SE,126,2.0,5.0,65,0.00,,,0.00,meteohub,2013-02-18 02:57:00,
2013-02-17 21:03:00,52.0,41.0,30.23,SSE,153,1.0,5.0,66,0.00,,,0.00,meteohub,2013-02-18 03:03:00,
2013-02-17 21:08:00,51.6,40.6,30.23,SSE,148,1.0,4.0,66,0.00,,,0.00,meteohub,2013-02-18 03:08:00,
2013-02-17 21:13:00,51.4,40.8,30.24,SE,136,1.0,4.0,67,0.00,,,0.00,meteohub,2013-02-18 03:13:00,
2013-02-17 21:18:00,51.4,40.8,30.24,ESE,111,2.0,3.0,67,0.00,,,0.00,meteohub,2013-02-18 03:18:00,
2013-02-17 21:23:00,51.3,41.0,30.24,ESE,107,0.0,5.0,68,0.00,,,0.00,meteohub,2013-02-18 03:23:00,
2013-02-17 21:28:00,51.1,40.8,30.24,SE,127,2.0,5.0,68,0.00,,,0.00,meteohub,2013-02-18 03:28:00,
2013-02-17 21:33:00,50.7,41.0,30.24,ESE,120,2.0,4.0,69,0.00,,,0.00,meteohub,2013-02-18 03:33:00,
2013-02-17 21:38:00,50.5,40.8,30.23,ESE,121,1.0,4.0,69,0.00,,,0.00,meteohub,2013-02-18 03:38:00,
2013-02-17 21:43:00,50.4,41.0,30.23,ESE,105,3.0,3.0,70,0.00,,,0.00,meteohub,2013-02-18 03:43:00,
2013-02-17 21:48:00,50.4,41.0,30.23,ESE,120,3.0,6.0,70,0.00,,,0.00,meteohub,2013-02-18 03:48:00,
2013-02-17 21:53:00,50.5,41.2,30.23,SE,128,3.0,6.0,70,0.00,,,0.00,meteohub,2013-02-18 03:53:00,
2013-02-17 21:58:00,50.5,41.5,30.23,SE,145,3.0,6.0,71,0.00,,,0.00,meteohub,2013-02-18 03:58:00,
2013-02-17 22:03:00,50.5,41.5,30.23,SE,146,0.0,7.0,71,0.00,,,0.00,meteohub,2013-02-18 04:03:00,
2013-02-17 22:08:00,50.5,41.9,30.23,ESE,119,1.0,7.0,72,0.00,,,0.00,meteohub,2013-02-18 04:08:00,
2013-02-17 22:13:00,50.4,41.7,30.23,SE,144,4.0,7.0,72,0.00,,,0.00,meteohub,2013-02-18 04:13:00,
2013-02-17 22:18:00,50.4,41.7,30.23,SSE,157,5.0,9.0,72,0.00,,,0.00,meteohub,2013-02-18 04:18:00,
2013-02-17 22:23:00,50.4,42.1,30.23,SE,146,1.0,9.0,73,0.00,,,0.00,meteohub,2013-02-18 04:23:00,
2013-02-17 22:28:00,50.2,41.9,30.23,SE,142,1.0,9.0,73,0.00,,,0.00,meteohub,2013-02-18 04:28:00,
2013-02-17 22:33:00,50.2,41.9,30.23,ESE,115,1.0,9.0,73,0.00,,,0.00,meteohub,2013-02-18 04:33:00,
2013-02-17 22:38:00,50.2,41.9,30.23,ESE,118,3.0,8.0,73,0.00,,,0.00,meteohub,2013-02-18 04:38:00,
2013-02-17 22:43:00,50.2,41.9,30.23,East,89,3.0,8.0,73,0.00,,,0.00,meteohub,2013-02-18 04:43:00,
2013-02-17 22:48:00,50.2,41.9,30.22,SE,140,0.0,8.0,73,0.00,,,0.00,meteohub,2013-02-18 04:48:00,
2013-02-17 22:53:00,50.0,41.7,30.23,East,95,3.0,7.0,73,0.00,,,0.00,meteohub,2013-02-18 04:53:00,
2013-02-17 22:58:00,49.8,41.5,30.23,SE,134,3.0,5.0,73,0.00,,,0.00,meteohub,2013-02-18 04:58:00,
2013-02-17 23:00:00,49.8,41.9,30.23,SE,136,3.0,5.0,74,0.00,,,0.00,meteohub,2013-02-18 05:00:00,
2013-02-17 23:05:00,49.8,41.9,30.22,ESE,123,2.0,6.0,74,0.00,,,0.00,meteohub,2013-02-18 05:05:00,
2013-02-17 23:10:00,49.8,41.9,30.22,SE,138,2.0,7.0,74,0.00,,,0.00,meteohub,2013-02-18 05:10:00,
2013-02-17 23:15:00,49.8,41.9,30.22,East,94,5.0,8.0,74,0.00,,,0.00,meteohub,2013-02-18 05:15:00,
2013-02-17 23:20:00,49.8,41.9,30.22,ESE,112,2.0,8.0,74,0.00,,,0.00,meteohub,2013-02-18 05:20:00,
2013-02-17 23:25:00,49.6,41.7,30.22,SE,131,1.0,8.0,74,0.00,,,0.00,meteohub,2013-02-18 05:25:00,
2013-02-17 23:30:00,49.6,41.7,30.23,SE,125,2.0,6.0,74,0.00,,,0.00,meteohub,2013-02-18 05:30:00,
2013-02-17 23:35:00,49.5,41.9,30.23,SE,134,1.0,5.0,75,0.00,,,0.00,meteohub,2013-02-18 05:35:00,
2013-02-17 23:40:00,49.5,41.9,30.23,SSE,161,1.0,5.0,75,0.00,,,0.00,meteohub,2013-02-18 05:40:00,
2013-02-17 23:45:00,49.3,41.7,30.22,SE,128,2.0,5.0,75,0.00,,,0.00,meteohub,2013-02-18 05:45:00,
2013-02-17 23:50:00,49.1,41.9,30.22,ESE,119,0.0,6.0,76,0.00,,,0.00,meteohub,2013-02-18 05:50:00,
2013-02-17 23:55:00,48.9,41.7,30.23,SSE,157,3.0,6.0,76,0.00,,,0.00,meteohub,2013-02-18 05:55:00,